Regional Weather Roundup
Issued by NWS

Home | Current Version | Previous Version | Text Only | Print | Product List | Glossary On
Versions: 1 2 3 4 5 6 7 8 9 10 11 12 13 14 15 16 17 18 19 20 21 22 23 24 25 26 27 28 29 30 31 32 33 34 35 36 37 38 39 40 41 42 43 44 45 46 47 48 49 50
000
ASUS43 KLSX 251359
RWRMO

WEATHER SUMMARY FOR MISSOURI
NATIONAL WEATHER SERVICE SPRINGFIELD MO
900 AM CDT SAT APR 25 2015

NOTE: "FAIR" INDICATES FEW OR NO CLOUDS BELOW 12,000 FEET WITH NO
       SIGNIFICANT WEATHER AND/OR OBSTRUCTIONS TO VISIBILITY.
       CURRENT SKY AND/OR WEATHER CONDITIONS ARE NOT AVAILABLE FOR
       CHILLICOTHE AND FARMINGTON.

MOZ001>031-035>038-043-044-053-054-251500-
...NORTHERN AND WESTERN MISSOURI...

CITY           SKY/WX    TMP DP  RH WIND       PRES   REMARKS
KANSAS CTY INT CLOUDY    58  56  93 E6        29.42F
KANSAS C DTWN  PTSUNNY   60  56  86 E3        29.41F
LEE`S SUMMIT   LGT RAIN  57  56  96 CALM      29.43S
ST JOSEPH      PTSUNNY   57  55  93 E10       29.44R
CHILLICOTHE      N/A     57  55  93 NE5       29.47F
KIRKSVILLE     CLOUDY    52  51  97 E12       29.52R FOG

$$
MOZ066>068-077>081-088>096-101>105-251500-
...SOUTHWEST MISSOURI...

CITY           SKY/WX    TMP DP  RH WIND       PRES   REMARKS
SPRINGFIELD    PTSUNNY   65  55  70 SW22G32   29.50S
JOPLIN         MOSUNNY   64  55  72 SW20G30   29.53R

$$
MOZ032>034-039>042-045>050-055>058-069>072-251500-
...CENTRAL MISSOURI...

CITY           SKY/WX    TMP DP  RH WIND       PRES   REMARKS
COLUMBIA       PTSUNNY   60  58  92 S13       29.47F
JEFFERSON CITY CLOUDY    62  57  83 SE6       29.48S
ROLLA          CLOUDY    61  57  87 S14       29.49S
SEDALIA        CLOUDY    64  57  78 SW13      29.45F
OSAGE BEACH    CLOUDY    64  55  72 SW9       29.48S

$$
MOZ051-052-059>065-251500-
...EAST CENTRAL MISSOURI...

CITY           SKY/WX    TMP DP  RH WIND       PRES   REMARKS
ST LOUIS INTL  CLOUDY    58  55  90 S8        29.55R FOG
SPIRIT OF STL  CLOUDY    58  55  90 S7        29.54R
ST CHARLES     CLOUDY    57  55  93 S8        29.55R FOG

$$
MOZ072>076-082>087-097>100-106>115-251500-
...SOUTH CENTRAL AND SOUTHEAST MISSOURI...

CITY           SKY/WX    TMP DP  RH WIND       PRES   REMARKS
CAPE GIRARDEAU CLOUDY    60  59  96 S10       29.60F FOG
FARMINGTON     CLOUDY    57  55  94 S12G17    29.59R
POPLAR BLUFF   CLOUDY    62  59  90 S15       29.56F
WEST PLAINS    PTSUNNY   62  58  86 SW12      29.58S

$$


USA.gov is the U.S. government's official web portal to all federal, state and local government web resources and services.